Chariton Muni Information

FAA: CNC - ICAO: KCNC

Chariton Muni (Airport) Location

State Iowa
County Lucas
City Chariton
Chariton Muni (Airport) is 3 miles west of Chariton, IA.
Latitude 41-01-10.6000N
Longitude 093-21-34.8000W
Elevation 1,050ft

Chariton Muni METARs

METAR KCNC 121415Z AUTO 16012KT 10SM CLR 22/16 A3019 RMK AO2
Altimeter 30.19"
Temperature 22.0°C (71.6°F)
Wind 160° at 12KT
Clouds Skies are clear.
Visibility 10.0mi
Time observed: 2022-08-12T14:15:00Z

Chariton Muni (Airport) Details

Status Operational
Activation April 1947
Ownership Public
Usage Public
Chart OMAHA
ATC on-site No
Beacon schedule sunset-sunrise
Beacon color clear green

Chariton Muni (Airport) Contacts

Owner CITY OF CHARITON
Owner address 115 SOUTH MAIN, CHARITON, IA 50049
Owner phone 641-774-5991
Manager DONALD MENSEN
Manager address 21177 QUAIL AVE, CARROLL, IA 51401
Manager phone 712-792-4980

Chariton Muni Radio Frequencies

Chariton Muni (Airport) Radio Frequencies

UNICOM 122.8
Common traffic advisory frequency (CTAF) 122.8